{"data":{"norad_id":61967,"intl_designator":"2024-210J","name":"STARLINK-32518","alt_names":[],"object_type":"PAYLOAD","status":"ACTIVE","operator":null,"country":"US","launch_date":"2024-11-14","launch_site_code":"AFETR","launch_vehicle":null,"mission":null,"orbit_class":"UNKNOWN","rcs_meters":null,"size_class":null,"mass_kg":null,"dimensions":null,"purposes":["comms"],"wikipedia_slug":null,"has_3d_model":false,"image_url":null,"decayed_at":null,"tle_current":{"epoch":"2026-09-21T22:55:27.360192Z","epoch_age_seconds":59933,"freshness":"FRESH","line1":"1 61967U 24210J   26264.95517778  .00014561  00000+0  53741-3 0  9996","line2":"2 61967  42.9979 144.5247 0000285 180.6440 179.4411 15.27591518104877","mean_motion":15.27591518,"eccentricity":2.85e-5,"inclination_deg":42.9979,"raan_deg":144.5247,"arg_perigee_deg":180.644,"mean_anomaly_deg":179.4411,"bstar":0.00053741,"rev_number":10487,"period_min":94.266037944838,"perigee_km":482.81906439997,"apogee_km":483.21015004158,"semimajor_km":6861.1516072208,"source":"CELESTRAK","updated_at":"2026-09-22T09:00:49.478422Z"}}}